Maun, Botswana

5:49 PM CAT on April 20, 2018 (GMT +0200)
Maun

Weather History for FBMN - April, 2013

Change the Weather History Date:

Wednesday, April 17, 2013

  Actual Average Record
Temperature  
Mean Temperature 74 °F -  
Max Temperature 92 °F 83 °F 95 °F (1999)
Min Temperature 57 °F 56 °F 56 °F (2012)
Cooling Degree Days 10    
Growing Degree Days 24 (Base 50)    
Moisture  
Dew Point 45 °F    
Average Humidity 33    
Maximum Humidity 52    
Minimum Humidity 12    
Precipitation  
Precipitation 0.00 in - - ()
Sea Level Pressure  
Sea Level Pressure 29.98 in    
Wind  
Wind Speed 4 mph ()    
Max Wind Speed 7 mph    
Max Gust Speed -    
Visibility 6.1 miles    
Events      
Averages and records for this station are not official NWS values.
T = Trace of Precipitation, MM = Missing Value Source: Averaged Metar Reports

Daily Weather History Graph

Daily Weather History Graph

Search for Another Location

Airport or City:

Astronomy

Apr. 17, 2013 Rise Set
Actual Time 6:37 AM CAT 6:13 PM CAT
Civil Twilight 6:15 AM CAT 6:35 PM CAT
Nautical Twilight 5:49 AM CAT 7:01 PM CAT
Astronomical Twilight 5:23 AM CAT 7:27 PM CAT
Moon 12:15 PM CAT (4/17) 11:43 PM CAT (4/17)
Length of Visible Light 12h 20m
Length of Day
11h 35m
Waxing Crescent, 40% of the Moon is Illuminated
Apr 17
Waxing Crescent
Apr 18
First Quarter
Apr 25
Full
May 2
Last Quarter
May 10
New

Hourly Weather History & Observations

Time (CAT) Temp. Heat Index Dew Point Humidity Pressure Visibility Wind Dir Wind Speed Gust Speed Precip Events Conditions
12:00 AM 69.8 °F - 48.2 °F 46% 30.04 in - Variable 2.3 mph - N/A   Clear
1:00 AM 68.0 °F - 44.6 °F 43% 30.01 in - Variable 2.3 mph - N/A   Clear
2:00 AM 68.0 °F - 46.4 °F 46% 30.01 in - Variable 2.3 mph - N/A   Clear
3:00 AM 68.0 °F - 46.4 °F 46% 30.01 in - ENE 4.6 mph - N/A   Clear
6:00 AM 64.4 °F - 41.0 °F 42% 29.98 in - ENE 5.8 mph - N/A   Clear
7:00 AM 60.8 °F - 42.8 °F 52% 30.01 in - Variable 2.3 mph - N/A   Clear
8:00 AM 65 °F - 43 °F 33%  in 6 mi NE 4.6 mph - -   Partly Cloudy
8:00 AM 64.4 °F - 42.8 °F 45% 30.04 in - NE 4.6 mph - N/A   Clear
9:00 AM 71.6 °F - 41.0 °F 33% 30.04 in - North 4.6 mph - N/A   Clear
10:00 AM 77.0 °F - 44.6 °F 32% 30.06 in - North 3.5 mph - N/A   Clear
11:00 AM 82.4 °F - 46.4 °F 28% 30.04 in - NNE 6.9 mph - N/A   Clear
12:00 PM 86.0 °F - 44.6 °F 23% 30.01 in - NE 5.8 mph - N/A   Clear
1:00 PM 89.6 °F - 46.4 °F 22% 29.98 in - NNE 6.9 mph - N/A   Clear
2:00 PM 89 °F - 43 °F 12%  in 6 mi ENE 4.6 mph - -   Partly Cloudy
2:00 PM 89.6 °F - 42.8 °F 20% 29.95 in 6.2 mi ENE 3.5 mph - N/A   Partly Cloudy
3:00 PM 91.4 °F - 46.4 °F 21% 29.92 in 6.2 mi NW 6.9 mph - N/A   Partly Cloudy
4:00 PM 91.4 °F - 42.8 °F 18% 29.92 in 6.2 mi North 6.9 mph - N/A   Partly Cloudy
5:00 PM 91.4 °F - 46.4 °F 21% 29.92 in 6.2 mi NNE 6.9 mph - N/A   Partly Cloudy
6:00 PM 87.8 °F - 44.6 °F 22% 29.92 in - NNW 4.6 mph - N/A   Clear
7:00 PM 82.4 °F 81.4 °F 53.6 °F 37% 29.92 in - Variable 2.3 mph - N/A   Clear
8:00 PM 78 °F - 46 °F 22%  in 6 mi NNW 4.6 mph - -  
8:00 PM 78.8 °F - 46.4 °F 32% 29.92 in - NNW 4.6 mph - N/A   Clear
9:00 PM 73.4 °F - 48.2 °F 41% 29.92 in - Variable 2.3 mph - N/A   Clear
10:00 PM 71.6 °F - 46.4 °F 41% 29.95 in - Variable 2.3 mph - N/A   Clear
11:00 PM 69.8 °F - 44.6 °F 40% 29.92 in - East 3.5 mph - N/A   Clear